THOR ABLESTAR DEB, 126

Orbit data source: Space-Track

THOR ABLESTAR DEB, 126 is space debris in LEO originally from a launch on Thu, 29 Jun 1961 UTC launched from the Air Force Eastern Test Range (AFETR). Debris objects in space refer to the collection of defunct objects orbiting the Earth. Examples of debris include non-operational satellites, rocket bodies, and fragments generated from explosions, collisions, or faulty payload assembly.

Loading next visibility...
Identifier
126, 1961-015L
Orbit
LEO
Country
Flag of USUS
Related business
Manufacturer
Unknown
Mission
Spacecraft
Bus & Motor
Unknown
Mass
Unknown
Launch date (UTC)
1961-06-29 (64 years ago)
Launch vehicle
Unknown
Launch site
Air Force Eastern Test Range (AFETR)
Object type
Payload
Rocket body
Debris
Shape & HBR
Unknown
Radar Cross Section
0.360 m², Medium (>0.1 m² and < 1m²)

Expand to show TLE details & history
Last TLE update: 15 hours ago

TLE from 15 hours ago
0 THOR ABLESTAR DEB
1 00126U 61015L   25242.17818785  .00001929  00000-0  58386-3 0  9996
2 00126  66.7092 152.6555 0052699 115.5517 245.1050 14.43661398322577
Epoch: 2025-08-30T04:16Z
TLE epoch observation values (Epoch: 2025-08-30T04:16:35.43Z)
Latitude
0.00001°
Longitude
109.89166°
Altitude
764.517 km
Speed
7.464 km/s
True Right ascension
10h 10m 37s
True Declination
0° 00' 00"
Sunlit
Object was in daylight at epoch
Visualization orbit readout
Latitude
Unknown
Longitude
Unknown
Altitude
Unknown
Speed
Unknown
Apparent Right ascension
Unknown
Apparent Declination
Unknown
Sunlit
N/A
Visualization observer readout
Local Sidereal Time
10:49:01
Azimuth
Unknown
Elevation
Unknown
Doppler factor
Unknown
Orbital elements
Apogee altitude
782.327 km
Perigee altitude
707.253 km
Semi-major axis
7,122.927 km
Eccentricity
0.00527
Inclination
66.7092°
RAAN
152.6555°
Arg. of periapsis
115.5517°
True anomaly
244.55875°
Mean anomaly
245.105°
Eccentric anomaly
244.83172°
Mean motion
3.6104 °/min
Orbital period
99.71 mins
BSTAR
0.00058386
Loading maneuver chart data...
Computing Atmospheric mass density...

Documentation

Showing up to 5 results
|